Regional Weather Roundup
Issued by NWS New Orleans/Baton Rouge, LA

Current Version | Previous Version | Text Only | Print | Product List | Glossary On
Versions: 1 2 3 4 5 6 7 8 9 10 11 12 13 14 15 16 17 18 19 20 21 22 23 24 25 26 27 28 29 30 31 32 33 34 35 36 37 38 39 40 41 42 43 44 45 46 47 48 49 50
000
ASUS44 KLIX 240912
RWRLIX
NEW ORLEANS REGIONAL WEATHER ROUNDUP
NATIONAL WEATHER SERVICE NEW ORLEANS LA
400 AM CDT SUN MAY 24 2015

NOTE: "FAIR" INDICATES FEW OR NO CLOUDS BELOW 12,000 FEET WITH NO
      SIGNIFICANT WEATHER AND/OR OBSTRUCTIONS TO VISIBILITY.
      SKY/WX - SKY CONDITION AND SIGNIFICANT WEATHER.
      TMP - AIR TEMPERATURE.     DP    - DEWPOINT TEMPERATURE.
      RH  - RELATIVE HUMIDITY.   PRES  - PRESSURE.
      HI  - HEAT INDEX.          WCI   - WIND CHILL INDEX.

*  THESE STATIONS ARE NOT NWS OR FAA STATIONS AND ARE NOT UNDER
   NWS QUALITY CONTROL.

LAZ038-040-048-061>063-065>067-069-241000-
SOUTHEAST LOUISIANA

CITY           SKY/WX    TMP DP  RH WIND       PRES   REMARKS
N.O. AUDUBON     N/A     78  77  96 MISG        N/A
N.O. INTL ARPT PTCLDY    77  72  84 SE9       30.08F
N.O. LAKEFRONT CLEAR     80  72  76 SE9       30.09S
SLIDELL        PTCLDY    77  74  90 SE7       30.09S
BATON ROUGE    CLEAR     72  70  93 E6        30.07S
BOOTHVILLE     CLEAR     76  74  93 SE5       30.10S
BELLE CHASSE   CLEAR     77  72  84 SE8       30.08S
BOGALUSA*        N/A     71  67  89 CALM      30.12S
GALLIANO*      SUNNY     79  73  80 CALM      30.08S
NEW ROADS*       N/A     73  72  96 CALM      30.07S
GONZALES*        N/A     73  73 100 E3        30.06F
HAMMOND*       PTCLDY    73  70  88 CALM      30.10F
HOUMA*         PTCLDY    75  73  94 E6        30.07F
PORT FOURCHON* MOSUNNY   81  73  78 SE14      30.08F

$$

MSZ070-080>082-241000-
SOUTHERN MISSISSIPPI

CITY           SKY/WX    TMP DP  RH WIND       PRES   REMARKS
MCCOMB         PTCLDY    70  70 100 SE7       30.10S FOG
GULFPORT       MOCLDY    80  72  76 SE14      30.10S
BILOXI         MOCLDY    79  74  83 S13       30.11S
PASCAGOULA     PTCLDY    76  72  87 SE6       30.12S

$$

COASTAL OBSERVATIONS
LAKE AND NEARSHORE STATIONS

STATION/POSITION TIME  TEMP    WIND        PRES    WAVE
                       AIR SEA DIR/SP/G            HT/PER
                 (UTC) (F)     (DEG/KT/KT) (MB)    (FT/S)
PASCAGOULA       0800   79     140/  9/ 14 1019.4
WAVELAND YACHT   0800   80 79  160/ 18/ 21 1019.3
GRAND ISLE       0800   80 82   80/ 11/ 15 1018.7
SOUTHWEST PASS   0800   80 74  150/ 11/ 19 1019.3
NEW CANAL        0800   78 81  140/  2/  6 1018.0
SHELL BEACH      0800   79 82  130/  9/ 13 1018.4

OFFSHORE STATIONS

STATION/POSITION TIME  TEMP    WIND        PRES    WAVE
                       AIR SEA DIR/SP/G            HT/PER
                 (UTC) (F)     (DEG/KT/KT) (MB)    (FT/S)
64 S DAUPHIN ISL 0850   79 80  130/ 16/ 19 1019.9    4/ 6

$$




USA.gov is the U.S. government's official web portal to all federal, state and local government web resources and services.